This demonstration page uses our WeatherBlox Daily Observations layout. Learn more.

Left ArrowRight Arrow

39.51506, -84.39828

Hourly Observations for December 7, 2015

Temp ( °F °C ) Dew Point ( °F °C ) Humidity (%) Winds ( mph kmh ) Pressure ( in mb ) Visibility ( mi km ) Precip ( " mm )
12:15 am 00:15 Cloudy 37 2.6 33 0.3 85 85 N N/A 30.27 1025 10 16.0934 N/A
12:35 am 00:35 Cloudy 37 2.6 32 0.2 84 84 N N/A 30.27 1025 10 16.0934 N/A
12:55 am 00:55 Cloudy 38 3.3 34 0.9 84 84 N N/A 30.27 1025 10 16.0934 N/A
1:15 am 01:15 Cloudy 39 4 35 1.7 85 85 N N/A 30.27 1025 10 16.0934 N/A
1:35 am 01:35 Cloudy 39 4 35 1.8 86 86 N N/A 30.27 1025 10 16.0934 N/A
1:55 am 01:55 Cloudy 39 4 35 1.8 86 86 N N/A 30.24 1024 10 16.0934 N/A
2:15 am 02:15 Cloudy 39 4 36 2 87 87 N N/A 30.24 1024 10 16.0934 N/A
2:35 am 02:35 Cloudy 39 4 35 1.8 86 86 N N/A 30.24 1024 10 16.0934 N/A
2:55 am 02:55 Cloudy 39 4 35 1.7 85 85 N N/A 30.24 1024 10 16.0934 N/A
3:15 am 03:15 Cloudy 39 4 35 1.7 85 85 N N/A 30.24 1024 10 16.0934 N/A
3:35 am 03:35 Cloudy 40 4.2 35 1.9 85 85 N N/A 30.24 1024 10 16.0934 N/A
3:55 am 03:55 Cloudy 40 4.5 36 2.2 85 85 N N/A 30.24 1024 10 16.0934 N/A
4:15 am 04:15 Cloudy 40 4.5 36 2.3 86 86 N N/A 30.24 1024 7 11.26538 N/A
4:35 am 04:35 Cloudy 40 4.3 36 2.1 86 86 N N/A 30.24 1024 10 16.0934 N/A
4:55 am 04:55 Cloudy 39 4 36 2 87 87 N N/A 30.24 1024 10 16.0934 N/A
5:15 am 05:15 Cloudy 39 4 36 2.1 88 88 N N/A 30.24 1024 10 16.0934 N/A
5:35 am 05:35 Cloudy 39 4.1 36 2.3 88 88 N N/A 30.24 1024 10 16.0934 N/A
5:55 am 05:55 Mostly Cloudy 39 4 36 2.2 88 88 N N/A 30.24 1024 10 16.0934 N/A
6:15 am 06:15 Partly Cloudy with Mist and Fog 38 3.3 35 1.5 88 88 SW 3 6 30.24 1024 5 8.0467 N/A
6:35 am 06:35 Cloudy 39 4 36 2.3 89 89 SW 3 6 30.24 1024 10 16.0934 N/A
6:55 am 06:55 Cloudy 39 4 36 2.1 88 88 N N/A 30.24 1024 10 16.0934 N/A
7:15 am 07:15 Cloudy 39 4 36 2.2 88 88 N N/A 30.24 1024 10 16.0934 N/A
7:35 am 07:35 Cloudy 39 4 36 2.2 88 88 N N/A 30.24 1024 7 11.26538 N/A
7:55 am 07:55 Cloudy 39 4 36 2.3 89 89 N N/A 30.24 1024 7 11.26538 N/A
8:15 am 08:15 Cloudy 39 4 36 2.3 89 89 N N/A 30.24 1024 7 11.26538 N/A
8:35 am 08:35 Cloudy 40 4.7 37 3 89 89 N N/A 30.27 1025 7 11.26538 N/A
8:55 am 08:55 Cloudy 40 4.7 37 3 89 89 N N/A 30.27 1025 7 11.26538 N/A
9:15 am 09:15 Cloudy 42 5.5 38 3.5 87 87 N N/A 30.24 1024 10 16.0934 N/A
9:35 am 09:35 Cloudy 42 5.8 39 3.8 87 87 N N/A 30.24 1024 7 11.26538 N/A
9:55 am 09:55 Cloudy 43 6.1 39 3.8 85 85 N N/A 30.24 1024 10 16.0934 N/A
10:15 am 10:15 Cloudy 44 6.8 39 4 83 83 N N/A 30.24 1024 7 11.26538 N/A
10:35 am 10:35 Cloudy 47 8.2 41 4.9 80 80 N N/A 30.24 1024 10 16.0934 N/A
10:55 am 10:55 Cloudy 48 8.9 42 5.5 79 79 N N/A 30.24 1024 10 16.0934 N/A
11:15 am 11:15 Mostly Cloudy 49 9.6 41 5 73 73 N 5 7 30.24 1024 10 16.0934 N/A
11:35 am 11:35 Partly Cloudy 49 9.6 40 4.2 69 69 N 6 9 30.24 1024 10 16.0934 N/A
11:55 am 11:55 Sunny 49 9.6 39 3.7 67 67 N 5 7 30.24 1024 10 16.0934 N/A
12:15 pm 12:15 Partly Cloudy 49 9.6 38 3.6 66 66 N N/A 30.24 1024 10 16.0934 N/A
12:35 pm 12:35 Mostly Cloudy 51 10.4 39 4 65 65 WSW 5 7 30.21 1023 10 16.0934 N/A
12:55 pm 12:55 Cloudy 55 12.5 41 5.2 61 61 SSW 5 7 30.21 1023 10 16.0934 N/A
1:15 pm 13:15 Partly Cloudy 53 11.9 41 4.8 62 62 SSW 3 6 30.21 1023 10 16.0934 N/A
1:35 pm 13:35 Mostly Cloudy 55 12.5 41 5.1 61 61 WSW 7 11 30.21 1023 10 16.0934 N/A
1:55 pm 13:55 Cloudy 55 12.5 41 4.8 60 60 SW 7 11 30.18 1022 10 16.0934 N/A
2:15 pm 14:15 Cloudy 55 12.5 40 4.5 58 58 WSW 8 13 30.18 1022 10 16.0934 N/A
2:35 pm 14:35 Cloudy 55 12.5 39 4 56 56 WSW 6 9 30.18 1022 10 16.0934 N/A
2:55 pm 14:55 Partly Cloudy 55 12.5 40 4.4 58 58 WSW 5 7 30.18 1022 10 16.0934 N/A
3:15 pm 15:15 Mostly Cloudy 55 12.5 40 4.3 58 58 S 3 6 30.18 1022 10 16.0934 N/A
3:35 pm 15:35 Mostly Cloudy 55 12.5 40 4.7 59 59 SW 3 6 30.15 1021 10 16.0934 N/A
3:55 pm 15:55 Mostly Cloudy 52 11 39 4 62 62 SW 7 11 30.18 1022 10 16.0934 N/A
4:15 pm 16:15 Cloudy 52 11 39 4 62 62 SW 7 11 30.18 1022 10 16.0934 N/A
4:35 pm 16:35 Mostly Cloudy 52 11 39 4 62 62 WSW 9 15 30.18 1022 10 16.0934 N/A
4:55 pm 16:55 Cloudy 52 11 39 4.1 63 63 WSW 7 11 30.21 1023 10 16.0934 N/A
5:15 pm 17:15 Cloudy 51 10.3 39 3.7 64 64 WSW 6 9 30.21 1023 10 16.0934 N/A
5:35 pm 17:35 Cloudy 50 9.8 38 3.3 64 64 N N/A 30.18 1022 10 16.0934 N/A
5:55 pm 17:55 Cloudy 49 9.6 39 4 68 68 SSW 3 6 30.21 1023 10 16.0934 N/A
6:15 pm 18:15 Cloudy 49 9.6 38 3.5 66 66 SSW 3 6 30.18 1022 10 16.0934 N/A
6:35 pm 18:35 Mostly Cloudy 49 9.6 40 4.4 70 70 N N/A 30.18 1022 10 16.0934 N/A
6:55 pm 18:55 Clear 45 7.2 38 3.3 77 77 N N/A 30.18 1022 10 16.0934 N/A
7:15 pm 19:15 Clear 42 5.5 37 2.5 81 81 W 3 6 30.21 1023 10 16.0934 N/A
7:35 pm 19:35 Clear 43 6.1 38 3.1 81 81 N N/A 30.18 1022 10 16.0934 N/A
7:55 pm 19:55 Clear 40 4.7 36 2.3 85 85 N N/A 30.21 1023 10 16.0934 N/A
8:15 pm 20:15 Clear 39 4 36 2 87 87 N N/A 30.21 1023 10 16.0934 N/A
8:35 pm 20:35 Clear 39 4 36 2 87 87 N N/A 30.21 1023 10 16.0934 N/A
8:55 pm 20:55 Partly Cloudy 37 2.8 33 0.8 87 87 N N/A 30.21 1023 7 11.26538 N/A
9:15 pm 21:15 Mostly Cloudy 37 2.7 34 1 89 89 N N/A 30.21 1023 10 16.0934 N/A
9:35 pm 21:35 Mostly Cloudy 37 2.6 33 0.8 88 88 N N/A 30.21 1023 10 16.0934 N/A
9:55 pm 21:55 Mostly Cloudy 37 3 34 1.2 88 88 N N/A 30.18 1022 10 16.0934 N/A
10:15 pm 22:15 Mostly Cloudy 37 2.6 33 0.8 88 88 NW 3 6 30.18 1022 10 16.0934 N/A
10:35 pm 22:35 Cloudy 37 3 34 1.2 88 88 N N/A 30.18 1022 10 16.0934 N/A
10:55 pm 22:55 Cloudy 39 4 36 2.2 88 88 N N/A 30.18 1022 10 16.0934 N/A
11:15 pm 23:15 Cloudy 39 4 36 2.2 88 88 N N/A 30.18 1022 10 16.0934 N/A
11:35 pm 23:35 Cloudy 40 4.6 37 2.8 88 88 N N/A 30.15 1021 10 16.0934 N/A
11:55 pm 23:55 Cloudy 40 4.7 37 3 89 89 N N/A 30.15 1021 10 16.0934 N/A

Powered by AerisWeather